| time (UTC) | temp F | wind direction | speed MPH | gust MPH | rain 1hr in | rain 24hr in | rain mn in | humidity % | barometer mb |
| 20260504050528 | 63 | 59 | 2.0 | 4.0 | 0.00 | 0.44 | 0.44 | 92 | 861.6 |
| 20260504045527 | 63 | 80 | 2.0 | 4.0 | 0.00 | 0.44 | 0.44 | 92 | 861.4 |
| 20260504045027 | 63 | 63 | 1.0 | 3.0 | 0.00 | 0.44 | 0.44 | 92 | 861.3 |
| 20260504044536 | 64 | 76 | 1.0 | 3.0 | 0.00 | 0.44 | 0.44 | 91 | 861.2 |
| 20260504044029 | 64 | 73 | 0.0 | 2.0 | 0.00 | 0.44 | 0.44 | 91 | 861.0 |
| 20260504043526 | 64 | 42 | 0.0 | 4.0 | 0.00 | 0.44 | 0.44 | 91 | 860.9 |
| 20260504043027 | 64 | 42 | 1.0 | 6.0 | 0.00 | 0.44 | 0.44 | 91 | 860.9 |
| 20260504042526 | 64 | 49 | 2.0 | 6.0 | 0.00 | 0.44 | 0.44 | 90 | 861.0 |
| 20260504042025 | 64 | 65 | 2.0 | 5.0 | 0.00 | 0.44 | 0.44 | 90 | 861.1 |
| 20260504041527 | 65 | 67 | 2.0 | 5.0 | 0.00 | 0.44 | 0.44 | 89 | 861.3 |
| 20260504041026 | 66 | 74 | 3.0 | 5.0 | 0.00 | 0.44 | 0.44 | 89 | 861.3 |
| 20260504040526 | 66 | 66 | 1.0 | 5.0 | 0.00 | 0.44 | 0.44 | 87 | 861.4 |
| 20260504040025 | 67 | 63 | 1.0 | 5.0 | 0.00 | 0.44 | 0.44 | 86 | 861.4 |
| 20260504035526 | 69 | 85 | 0.0 | 6.0 | 0.00 | 0.44 | 0.44 | 84 | 861.3 |
| 20260504035024 | 71 | 65 | 0.0 | 10.0 | 0.00 | 0.44 | 0.44 | 82 | 861.2 |
| 20260504034534 | 73 | 320 | 2.0 | 12.0 | 0.00 | 0.44 | 0.44 | 78 | 861.1 |
| 20260504034024 | 73 | 360 | 5.0 | 20.0 | 0.00 | 0.44 | 0.44 | 75 | 861.2 |
| 20260504033525 | 72 | 37 | 5.0 | 20.0 | 0.00 | 0.44 | 0.44 | 78 | 861.0 |
| 20260504033023 | 70 | 12 | 6.0 | 16.0 | 0.00 | 0.44 | 0.44 | 80 | 861.0 |
| 20260504032523 | 70 | 36 | 6.0 | 17.0 | 0.00 | 0.44 | 0.44 | 80 | 861.2 |
| 20260504032023 | 69 | 77 | 10.0 | 17.0 | 0.00 | 0.44 | 0.44 | 83 | 861.2 |
| 20260504031523 | 64 | 46 | 4.0 | 9.0 | 0.00 | 0.44 | 0.44 | 91 | 861.4 |
| 20260504031022 | 64 | 87 | 2.0 | 6.0 | 0.00 | 0.44 | 0.44 | 91 | 861.5 |
| 20260504030522 | 64 | 61 | 3.0 | 6.0 | 0.00 | 0.44 | 0.44 | 91 | 861.5 |
| 20260504030038 | 64 | 46 | 0.0 | 5.0 | 0.00 | 0.44 | 0.44 | 91 | 861.5 |
| 20260504025523 | 65 | 76 | 3.0 | 5.0 | 0.00 | 0.44 | 0.44 | 90 | 861.4 |
| 20260504025024 | 65 | 67 | 1.0 | 5.0 | 0.00 | 0.44 | 0.44 | 89 | 861.6 |
| 20260504024523 | 67 | 65 | 3.0 | 5.0 | 0.00 | 0.44 | 0.44 | 87 | 861.5 |
| 20260504024021 | 69 | 69 | 2.0 | 8.0 | 0.00 | 0.44 | 0.44 | 84 | 861.4 |
| 20260504023522 | 71 | 186 | 1.0 | 18.0 | 0.00 | 0.44 | 0.44 | 82 | 861.2 |
| 20260504023025 | 71 | 45 | 4.0 | 18.0 | 0.00 | 0.44 | 0.44 | 79 | 861.1 |
| 20260504022521 | 69 | 59 | 2.0 | 12.0 | 0.00 | 0.44 | 0.44 | 84 | 861.2 |
| 20260504022020 | 67 | 50 | 4.0 | 12.0 | 0.00 | 0.44 | 0.44 | 87 | 861.1 |
| 20260504021519 | 65 | 140 | 4.0 | 10.0 | 0.00 | 0.44 | 0.44 | 91 | 861.0 |
| 20260504021019 | 65 | 54 | 2.0 | 10.0 | 0.00 | 0.44 | 0.44 | 91 | 861.1 |
| 20260504020519 | 65 | 136 | 2.0 | 8.0 | 0.00 | 0.44 | 0.44 | 90 | 861.3 |
| 20260504020022 | 64 | 26 | 3.0 | 10.0 | 0.01 | 0.44 | 0.44 | 91 | 861.2 |
| 20260504015519 | 64 | 188 | 3.0 | 10.0 | 0.01 | 0.44 | 0.44 | 94 | 860.9 |
| 20260504015024 | 63 | 50 | 0.0 | 5.0 | 0.02 | 0.44 | 0.44 | 93 | 861.0 |
| 20260504014532 | 64 | 61 | 2.0 | 4.0 | 0.02 | 0.44 | 0.44 | 93 | 861.1 |
| 20260504014018 | 64 | 78 | 0.0 | 4.0 | 0.03 | 0.44 | 0.44 | 93 | 861.1 |
| 20260504013518 | 64 | 76 | 1.0 | 4.0 | 0.04 | 0.44 | 0.44 | 92 | 861.1 |
| 20260504013020 | 64 | 32 | 1.0 | 11.0 | 0.06 | 0.44 | 0.44 | 92 | 861.0 |
| 20260504012518 | 64 | 44 | 4.0 | 11.0 | 0.12 | 0.44 | 0.44 | 93 | 860.8 |
| 20260504012018 | 64 | 72 | 4.0 | 11.0 | 0.15 | 0.44 | 0.44 | 93 | 860.9 |
| 20260504011518 | 63 | 69 | 4.0 | 11.0 | 0.21 | 0.44 | 0.44 | 94 | 861.0 |
| 20260504011020 | 64 | 78 | 2.0 | 5.0 | 0.24 | 0.44 | 0.44 | 94 | 861.1 |
| 20260504010517 | 64 | 82 | 2.0 | 4.0 | 0.30 | 0.44 | 0.44 | 94 | 861.3 |
| 20260504010020 | 64 | 70 | 1.0 | 4.0 | 0.31 | 0.43 | 0.43 | 94 | 861.5 |
| 20260504005517 | 64 | 68 | 2.0 | 4.0 | 0.32 | 0.43 | 0.43 | 93 | 861.6 |
| 20260504005019 | 64 | 16 | 2.0 | 4.0 | 0.31 | 0.42 | 0.42 | 93 | 861.7 |
| 20260504004517 | 64 | 69 | 0.0 | 6.0 | 0.31 | 0.42 | 0.42 | 93 | 861.7 |
| 20260504004016 | 64 | 66 | 2.0 | 6.0 | 0.30 | 0.41 | 0.41 | 93 | 861.6 |
| 20260504003515 | 65 | 86 | 1.0 | 5.0 | 0.28 | 0.40 | 0.40 | 92 | 861.7 |
| 20260504003027 | 65 | 250 | 2.0 | 5.0 | 0.26 | 0.37 | 0.37 | 92 | 861.9 |
| 20260504002515 | 66 | 53 | 2.0 | 7.0 | 0.20 | 0.31 | 0.31 | 91 | 861.9 |
| 20260504002015 | 66 | 59 | 1.0 | 14.0 | 0.17 | 0.28 | 0.28 | 90 | 861.8 |
| 20260504001515 | 67 | 49 | 2.0 | 19.0 | 0.12 | 0.23 | 0.23 | 89 | 861.8 |
| 20260504001017 | 67 | 34 | 13.0 | 19.0 | 0.08 | 0.19 | 0.19 | 90 | 861.7 |
| 20260504000514 | 67 | 15 | 3.0 | 6.0 | 0.02 | 0.13 | 0.13 | 93 | 861.5 |
| 20260504000014 | 68 | 67 | 1.0 | 4.0 | 0.00 | 0.11 | 0.11 | 93 | 861.1 |
| 20260503235514 | 68 | 63 | 2.0 | 4.0 | 0.00 | 0.11 | 0.11 | 93 | 860.8 |
| 20260503235018 | 68 | 73 | 0.0 | 4.0 | 0.00 | 0.11 | 0.11 | 93 | 860.5 |
| 20260503234529 | 68 | 71 | 2.0 | 4.0 | 0.00 | 0.11 | 0.11 | 92 | 860.2 |
| 20260503234013 | 68 | 67 | 2.0 | 4.0 | 0.00 | 0.11 | 0.11 | 92 | 860.1 |
| 20260503233517 | 68 | 60 | 1.0 | 4.0 | 0.00 | 0.11 | 0.11 | 92 | 860.0 |
| 20260503233013 | 68 | 83 | 1.0 | 4.0 | 0.00 | 0.11 | 0.11 | 92 | 859.8 |
| 20260503232513 | 69 | 80 | 2.0 | 6.0 | 0.00 | 0.11 | 0.11 | 92 | 859.8 |
| 20260503232013 | 69 | 53 | 2.0 | 7.0 | 0.00 | 0.11 | 0.11 | 92 | 859.8 |
| 20260503231514 | 68 | 28 | 4.0 | 8.0 | 0.00 | 0.11 | 0.11 | 93 | 859.8 |
| 20260503231016 | 68 | 57 | 2.0 | 10.0 | 0.00 | 0.11 | 0.11 | 94 | 859.7 |
| 20260503230512 | 68 | 54 | 5.0 | 10.0 | 0.00 | 0.11 | 0.11 | 94 | 859.9 |
| 20260503230012 | 68 | 87 | 0.0 | 3.0 | 0.00 | 0.11 | 0.11 | 94 | 859.9 |
| 20260503225511 | 68 | 87 | 1.0 | 3.0 | 0.00 | 0.15 | 0.11 | 94 | 860.1 |
| 20260503225014 | 68 | 199 | 0.0 | 1.0 | 0.00 | 0.15 | 0.11 | 94 | 860.1 |
| 20260503224511 | 68 | 199 | 0.0 | 3.0 | 0.00 | 0.15 | 0.11 | 94 | 860.1 |
| 20260503224011 | 69 | 199 | 1.0 | 4.0 | 0.00 | 0.15 | 0.11 | 94 | 860.2 |
| 20260503223511 | 69 | 199 | 0.0 | 5.0 | 0.00 | 0.15 | 0.11 | 94 | 860.2 |
| 20260503223010 | 69 | 184 | 2.0 | 4.0 | 0.00 | 0.15 | 0.11 | 93 | 860.2 |
| 20260503222510 | 69 | 92 | 0.0 | 1.0 | 0.00 | 0.15 | 0.11 | 93 | 860.2 |
| 20260503222010 | 69 | 92 | 0.0 | 4.0 | 0.00 | 0.15 | 0.11 | 93 | 860.2 |
| 20260503221510 | 69 | 92 | 2.0 | 4.0 | 0.00 | 0.15 | 0.11 | 93 | 860.1 |
| 20260503221010 | 69 | 109 | 1.0 | 4.0 | 0.00 | 0.15 | 0.11 | 93 | 860.2 |
| 20260503220513 | 69 | 109 | 1.0 | 4.0 | 0.00 | 0.15 | 0.11 | 93 | 860.3 |
| 20260503220010 | 70 | 179 | 1.0 | 3.0 | 0.00 | 0.15 | 0.11 | 93 | 860.3 |
| 20260503215512 | 70 | 179 | 0.0 | 2.0 | 0.00 | 0.15 | 0.11 | 93 | 860.3 |
| 20260503215009 | 70 | 179 | 1.0 | 2.0 | 0.00 | 0.15 | 0.11 | 93 | 860.3 |
| 20260503214513 | 70 | 179 | 0.0 | 2.0 | 0.00 | 0.15 | 0.11 | 93 | 860.3 |
| 20260503214008 | 70 | 180 | 0.0 | 1.0 | 0.00 | 0.15 | 0.11 | 92 | 860.4 |
| 20260503213508 | 70 | 179 | 0.0 | 1.0 | 0.00 | 0.15 | 0.11 | 92 | 860.4 |
| 20260503213008 | 71 | 180 | 0.0 | 4.0 | 0.00 | 0.15 | 0.11 | 92 | 860.4 |
| 20260503212508 | 71 | 179 | 0.0 | 4.0 | 0.00 | 0.15 | 0.11 | 92 | 860.6 |
| 20260503212008 | 71 | 201 | 1.0 | 3.0 | 0.00 | 0.15 | 0.11 | 91 | 860.3 |
| 20260503211509 | 71 | 208 | 1.0 | 3.0 | 0.00 | 0.15 | 0.11 | 91 | 860.1 |
| 20260503211010 | 71 | 208 | 0.0 | 2.0 | 0.00 | 0.15 | 0.11 | 90 | 860.0 |
| 20260503210510 | 71 | 208 | 0.0 | 4.0 | 0.00 | 0.15 | 0.11 | 90 | 860.0 |
| 20260503210007 | 71 | 208 | 1.0 | 4.0 | 0.00 | 0.15 | 0.11 | 91 | 860.2 |
| 20260503205508 | 71 | 207 | 1.0 | 2.0 | 0.00 | 0.15 | 0.11 | 91 | 860.4 |
| 20260503205008 | 71 | 207 | 0.0 | 3.0 | 0.00 | 0.15 | 0.11 | 92 | 860.5 |
| 20260503204508 | 71 | 207 | 1.0 | 3.0 | 0.00 | 0.15 | 0.11 | 92 | 860.5 |
| 20260503204006 | 71 | 206 | 1.0 | 6.0 | 0.00 | 0.15 | 0.11 | 93 | 860.4 |
| 20260503203510 | 71 | 217 | 2.0 | 6.0 | 0.00 | 0.15 | 0.11 | 94 | 860.4 |
| 20260503203009 | 70 | 227 | 0.0 | 2.0 | 0.01 | 0.15 | 0.11 | 94 | 860.5 |
| 20260503202506 | 70 | 227 | 0.0 | 5.0 | 0.02 | 0.15 | 0.11 | 94 | 860.6 |
| 20260503202006 | 69 | 226 | 2.0 | 5.0 | 0.02 | 0.15 | 0.11 | 94 | 860.7 |
| 20260503201506 | 69 | 184 | 2.0 | 5.0 | 0.08 | 0.15 | 0.11 | 95 | 860.7 |
| 20260503201007 | 69 | 110 | 0.0 | 1.0 | 0.09 | 0.15 | 0.11 | 95 | 860.9 |
| 20260503200506 | 69 | 109 | 0.0 | 1.0 | 0.09 | 0.15 | 0.11 | 95 | 860.9 |
| 20260503200006 | 68 | 109 | 0.0 | 1.0 | 0.09 | 0.15 | 0.11 | 95 | 860.9 |
| 20260503195506 | 68 | 108 | 0.0 | 1.0 | 0.09 | 0.15 | 0.11 | 94 | 861.1 |
| 20260503195006 | 68 | 108 | 0.0 | 1.0 | 0.09 | 0.15 | 0.11 | 95 | 861.2 |
| 20260503194505 | 68 | 108 | 0.0 | 1.0 | 0.09 | 0.15 | 0.11 | 95 | 861.2 |
| 20260503194007 | 68 | 108 | 0.0 | 0.0 | 0.09 | 0.15 | 0.11 | 94 | 861.4 |
| 20260503193505 | 68 | 108 | 0.0 | 2.0 | 0.09 | 0.14 | 0.10 | 94 | 861.5 |
| 20260503193008 | 68 | 108 | 0.0 | 3.0 | 0.08 | 0.13 | 0.09 | 94 | 861.5 |
| 20260503192504 | 68 | 108 | 0.0 | 3.0 | 0.08 | 0.13 | 0.09 | 94 | 861.5 |
| 20260503192008 | 68 | 109 | 1.0 | 3.0 | 0.06 | 0.11 | 0.07 | 94 | 861.6 |
| 20260503191503 | 68 | 209 | 0.0 | 1.0 | 0.02 | 0.07 | 0.03 | 94 | 861.6 |
| 20260503191007 | 68 | 209 | 0.0 | 1.0 | 0.02 | 0.06 | 0.02 | 94 | 861.6 |
| 20260503190505 | 69 | 209 | 0.0 | 1.0 | 0.02 | 0.06 | 0.02 | 94 | 861.6 |
| 20260503190003 | 69 | 209 | 0.0 | 2.0 | 0.02 | 0.06 | 0.02 | 94 | 861.7 |
| 20260503185504 | 69 | 209 | 0.0 | 2.0 | 0.02 | 0.06 | 0.02 | 94 | 861.7 |
| 20260503185005 | 69 | 209 | 0.0 | 1.0 | 0.02 | 0.06 | 0.02 | 93 | 861.7 |
| 20260503184507 | 69 | 209 | 0.0 | 1.0 | 0.02 | 0.06 | 0.02 | 93 | 861.8 |
| 20260503184004 | 70 | 209 | 0.0 | 0.0 | 0.02 | 0.06 | 0.02 | 93 | 861.8 |
| 20260503183503 | 70 | 209 | 0.0 | 0.0 | 0.02 | 0.06 | 0.02 | 93 | 861.8 |
| 20260503183002 | 70 | 209 | 0.0 | 1.0 | 0.02 | 0.06 | 0.02 | 93 | 861.9 |
| 20260503182502 | 70 | 209 | 0.0 | 1.0 | 0.02 | 0.06 | 0.02 | 92 | 862.0 |
| 20260503182005 | 70 | 209 | 0.0 | 1.0 | 0.02 | 0.06 | 0.02 | 92 | 862.0 |
| 20260503181503 | 71 | 209 | 0.0 | 7.0 | 0.02 | 0.06 | 0.02 | 91 | 862.0 |
| 20260503181002 | 71 | 209 | 0.0 | 7.0 | 0.00 | 0.04 | 0.00 | 91 | 862.1 |
| 20260503180502 | 72 | 186 | 0.0 | 3.0 | 0.00 | 0.04 | 0.00 | 90 | 862.1 |
| 20260503180002 | 72 | 182 | 0.0 | 3.0 | 0.00 | 0.04 | 0.00 | 90 | 862.1 |
| 20260503175501 | 72 | 182 | 0.0 | 4.0 | 0.00 | 0.04 | 0.00 | 90 | 862.1 |
| 20260503175003 | 72 | 187 | 2.0 | 3.0 | 0.00 | 0.04 | 0.00 | 90 | 862.1 |
| 20260503174501 | 72 | 188 | 1.0 | 4.0 | 0.00 | 0.04 | 0.00 | 89 | 862.2 |
| 20260503174100 | 73 | 188 | 1.0 | 4.0 | 0.00 | 0.04 | 0.00 | 88 | 862.3 |
| 20260503173600 | 73 | 187 | 1.0 | 4.0 | 0.00 | 0.04 | 0.00 | 88 | 862.4 |
| 20260503173120 | 73 | 187 | 1.0 | 4.0 | 0.00 | 0.04 | 0.00 | 88 | 862.4 |
| 20260503172603 | 73 | 184 | 2.0 | 4.0 | 0.00 | 0.04 | 0.00 | 88 | 862.3 |
| 20260503172058 | 73 | 194 | 1.0 | 4.0 | 0.00 | 0.04 | 0.00 | 88 | 862.3 |
| 20260503171556 | 73 | 197 | 1.0 | 2.0 | 0.00 | 0.04 | 0.00 | 88 | 862.3 |
| 20260503171057 | 72 | 197 | 0.0 | 3.0 | 0.00 | 0.04 | 0.00 | 88 | 862.3 |
| 20260503170556 | 72 | 197 | 0.0 | 4.0 | 0.00 | 0.04 | 0.00 | 89 | 862.3 |
| 20260503150540 | 69 | 163 | 0.0 | 3.0 | 0.00 | 0.04 | 0.00 | 92 | 862.3 |
| 20260503131028 | 65 | 66 | 2.0 | 4.0 | 0.00 | 0.04 | 0.00 | 95 | 861.3 |
| 20260503130527 | 65 | 66 | 2.0 | 4.0 | 0.00 | 0.04 | 0.00 | 95 | 861.3 |
| 20260503110524 | 0 | 0.0 | 0.0 | 0.00 | 0.04 | 0.00 | 860.7 | ||
| 20260503081552 | 63 | 62 | 3.0 | 5.0 | 0.00 | 0.04 | 0.00 | 94 | 860.2 |
| 20260503081050 | 63 | 59 | 2.0 | 5.0 | 0.00 | 0.04 | 0.00 | 94 | 860.3 |
| 20260503080552 | 63 | 70 | 3.0 | 5.0 | 0.00 | 0.04 | 0.00 | 94 | 860.3 |
| 20260503072548 | 64 | 59 | 2.0 | 5.0 | 0.00 | 0.04 | 0.00 | 94 | 860.5 |
| 20260503072047 | 64 | 62 | 2.0 | 5.0 | 0.00 | 0.04 | 0.00 | 93 | 860.6 |
| 20260503071548 | 64 | 56 | 3.0 | 5.0 | 0.00 | 0.04 | 0.00 | 93 | 860.6 |
| 20260503071045 | 64 | 61 | 2.0 | 4.0 | 0.00 | 0.04 | 0.00 | 93 | 860.8 |
| 20260503070545 | 64 | 63 | 2.0 | 5.0 | 0.00 | 0.04 | 0.00 | 93 | 860.8 |